Waarnemingen

Advertentie
Mijn weer
St-Auban-Sur-Durance, Frankrijk (7588): temperatuur & dauwpunt: 17.09.2019 13:00:00 - 23.09.2019 13:00:00 (CEST)St-Auban-Sur-Durance, Frankrijk (7588): temperatuur 5cm: 17.09.2019 13:00:00 - 23.09.2019 13:00:00 (CEST)St-Auban-Sur-Durance, Frankrijk (7588): temperatuur -20cm: 17.09.2019 13:00:00 - 23.09.2019 13:00:00 (CEST)St-Auban-Sur-Durance, Frankrijk (7588): windsnelheid & windstoten: 17.09.2019 13:00:00 - 23.09.2019 13:00:00 (CEST)St-Auban-Sur-Durance, Frankrijk (7588): windrichting: 17.09.2019 13:00:00 - 23.09.2019 13:00:00 (CEST)St-Auban-Sur-Durance, Frankrijk (7588): luchtdruk: 17.09.2019 13:00:00 - 23.09.2019 13:00:00 (CEST)St-Auban-Sur-Durance, Frankrijk (7588): zicht: 17.09.2019 13:00:00 - 23.09.2019 13:00:00 (CEST)St-Auban-Sur-Durance, Frankrijk (7588): Zonneschijnduur: 17.09.2019 13:00:00 - 23.09.2019 13:00:00 (CEST)St-Auban-Sur-Durance, Frankrijk (7588): neerslag: 17.09.2019 13:00:00 - 23.09.2019 13:00:00 (CEST)
Datum & Tijd tt [°C] td [°C] tt 5cm [°C] tt -20cm [°C] ff [km/u] ff [kn] fx [km/u] fx [kn] dd ppp [hPa] vv [km] sd [min] rr [mm]
23.09.2019 13:00:00 21,3 9,8 27,0 20,4 14 8 33 18 NNO 1013,0 20 60 0,0
23.09.2019 12:00:00 19,7 9,8 24,5 20,4 20 11 37 20 N 1014,1 20 60 0,0
23.09.2019 11:00:00 18,3 9,6 20,3 20,4 18 10 36 19 N 1014,6 20 60 0,0
23.09.2019 10:00:00 15,9 10,4 17,2 20,6 13 7 24 13 NNO 1015,1 20 37 0,0
23.09.2019 09:00:00 15,4 11,0 15,9 20,8 13 7 34 18 NNO 1015,1 20 60 0,0
23.09.2019 08:00:00 14,3 11,4 14,1 20,9 23 12 38 21 N 1015,2 20 8 0,0
23.09.2019 07:00:00 13,9 12,3 14,1 21,1 16 9 25 13 N 1014,8 20 0 0,0
23.09.2019 06:00:00 14,6 13,0 14,2 21,2 13 7 17 9 N 1014,1 20 0 0,0
23.09.2019 05:00:00 14,7 13,4 14,8 21,2 6 4 13 7 N 1014,0 20 0 0,0
23.09.2019 04:00:00 16,0 14,0 16,4 21,4 7 4 16 9 NO 1014,0 20 0 0,0
23.09.2019 03:00:00 16,7 16,5 17,3 21,5 2 1 8 4 N 1013,9 18 0 0,2
23.09.2019 02:00:00 16,9 16,6 17,9 21,5 3 2 22 12 W 1014,2 15 0 0,2
23.09.2019 01:00:00 16,9 16,6 17,8 21,6 16 9 22 12 ZW 1013,9 20 0 0,0
23.09.2019 00:00:00 17,0 16,7 17,9 21,8 6 4 30 16 Z 1013,4 18 0 6,7
22.09.2019 23:00:00 17,6 16,8 18,3 21,8 8 5 17 9 W 1012,7 20 0 0,0
22.09.2019 22:00:00 17,6 16,8 18,4 21,8 4 2 9 5 ZZW 1012,9 20 0 0,0
22.09.2019 21:00:00 17,7 16,4 18,8 21,8 2 1 4 2 O 1013,0 20 0 0,0
22.09.2019 20:00:00 17,9 16,2 18,9 21,8 0 0 5 3 N 1012,7 20 0 0,0
22.09.2019 19:00:00 18,5 16,1 19,9 21,8 0 0 8 4 N 1012,5 20 0 0,0
22.09.2019 18:00:00 18,7 16,1 21,0 21,7 6 3 16 8 N 1012,3 20 1 0,0
22.09.2019 17:00:00 18,7 15,6 21,7 21,6 5 3 9 5 NO 1012,5 20 0 0,0
22.09.2019 16:00:00 18,3 15,9 20,7 21,5 7 4 17 9 N 1012,6 20 1 0,0
22.09.2019 15:00:00 18,1 16,1 19,1 21,5 9 5 15 8 N 1013,0 20 6 0,0
22.09.2019 14:00:00 17,0 15,7 18,6 21,4 8 5 15 8 N 1013,5 20 0 0,0
22.09.2019 13:00:00 16,8 15,3 17,8 21,4 4 2 12 7 N 1013,7 20 0 0,6
22.09.2019 12:00:00 16,3 15,2 16,9 21,5 9 5 20 11 NNO 1014,2 20 0 0,4
22.09.2019 11:00:00 16,0 14,9 16,7 21,6 11 6 18 10 NNO 1014,3 16 0 0,8
22.09.2019 10:00:00 16,2 15,1 16,5 21,6 9 5 18 10 NNO 1014,1 20 0 0,2
22.09.2019 09:00:00 15,6 15,0 16,2 21,7 6 3 13 7 NO 1014,1 20 0 1,0
22.09.2019 08:00:00 15,4 14,9 16,4 21,8 6 3 15 8 NNO 1014,0 20 0 0,0
22.09.2019 07:00:00 15,5 15,2 16,3 21,9 3 2 14 8 O 1013,9 19 0 0,0
22.09.2019 06:00:00 15,3 15,1 16,1 22,0 5 3 10 6 NO 1014,2 8 0 0,2
22.09.2019 05:00:00 15,0 14,7 16,0 22,1 6 3 20 11 WZW 1015,0 5 0 0,6
22.09.2019 04:00:00 15,2 14,9 15,5 22,3 3 1 10 6 ZW 1014,7 12 0 0,2
22.09.2019 03:00:00 15,3 14,7 15,9 22,4 0 0 12 6 N 1014,9 19 0 0,0
22.09.2019 02:00:00 15,5 14,9 16,2 22,5 8 4 12 6 WZW 1015,0 20 0 0,0
22.09.2019 01:00:00 15,8 15,0 16,4 22,6 4 2 14 8 WNW 1014,6 19 0 0,0
22.09.2019 00:00:00 15,9 15,4 16,6 22,6 2 1 10 6 WNW 1015,1 10 0 0,0
21.09.2019 23:00:00 16,0 15,7 17,0 22,7 7 4 11 6 W 1015,8 10 0 0,0
21.09.2019 22:00:00 16,0 15,4 16,8 22,9 5 3 12 6 ZW 1015,7 20 0 0,0
21.09.2019 21:00:00 16,1 15,5 17,0 22,9 5 3 8 4 NO 1015,8 13 0 0,0
21.09.2019 20:00:00 16,3 15,5 17,0 22,9 4 2 11 6 N 1017,0 16 0 1,0
21.09.2019 19:00:00 16,5 15,5 17,2 22,9 11 6 26 14 ZW 1017,6 20 0 0,8
21.09.2019 18:00:00 17,3 15,1 17,9 22,9 10 5 27 15 WZW 1017,0 20 0 0,2
21.09.2019 17:00:00 18,0 14,5 19,2 22,8 17 9 35 19 ZW 1016,9 20 0 0,0
21.09.2019 16:00:00 21,4 12,0 23,6 22,7 17 9 22 12 ZW 1016,7 20 0 0,0
21.09.2019 15:00:00 21,9 11,6 20,9 22,6 5 3 20 11 WZW 1016,7 20 0 0,0
21.09.2019 14:00:00 20,7 12,1 21,0 22,5 16 8 24 13 ZW 1018,4 20 0 0,0
21.09.2019 13:00:00 21,5 10,9 26,0 22,5 12 6 15 8 ZZW 1019,0 20 0 0,0
21.09.2019 12:00:00 21,2 10,9 25,6 22,5 5 3 10 6 Z 1019,5 20 0 0,0
21.09.2019 11:00:00 19,1 11,6 22,2 22,6 3 2 10 6 ZW 1019,8 20 51 0,0
21.09.2019 10:00:00 16,1 12,3 18,2 22,7 5 3 10 5 ONO 1020,7 20 32 0,0
21.09.2019 09:00:00 14,4 11,5 14,7 22,9 6 3 13 7 NNO 1020,9 20 44 0,0
21.09.2019 08:00:00 11,8 10,5 11,5 23,1 8 5 13 7 NNO 1021,0 20 9 0,0
21.09.2019 07:00:00 11,4 10,3 11,6 23,3 8 5 12 6 NNO 1021,2 20 0 0,0
21.09.2019 06:00:00 11,9 10,3 11,7 23,6 11 6 13 7 NNO 1021,5 20 0 0,0
21.09.2019 05:00:00 12,1 10,3 11,8 23,7 5 3 10 5 NNO 1021,5 20 0 0,0
21.09.2019 04:00:00 12,3 10,4 12,2 23,9 4 2 12 6 NO 1021,4 20 0 0,0
21.09.2019 03:00:00 13,5 10,7 13,2 24,1 5 3 14 7 OZO 1021,6 20 0 0,0
21.09.2019 02:00:00 13,7 10,5 13,6 24,3 5 3 12 7 Z 1021,8 20 0 0,0
21.09.2019 01:00:00 15,1 10,9 14,6 24,4 4 2 8 4 ZO 1021,2 20 0 0,0
21.09.2019 00:00:00 16,0 10,7 15,9 24,5 3 2 9 5 WZW 1021,4 20 0 0,0
20.09.2019 23:00:00 17,8 11,1 18,9 24,6 6 3 10 6 ZW 1021,2 20 0 0,0
20.09.2019 22:00:00 18,2 11,3 19,0 24,7 7 4 18 10 ZW 1021,1 20 0 0,0
20.09.2019 21:00:00 18,7 11,5 19,1 24,7 14 8 24 13 ZW 1020,4 20 0 0,0
20.09.2019 20:00:00 20,4 11,3 20,8 24,7 19 10 29 16 ZW 1019,6 20 0 0,0
20.09.2019 19:00:00 22,7 11,1 24,8 24,6 22 12 32 17 ZW 1018,9 20 50 0,0
20.09.2019 18:00:00 24,7 11,6 28,9 24,4 23 12 32 17 ZW 1018,3 20 60 0,0
20.09.2019 17:00:00 25,4 11,9 30,9 24,1 22 12 32 18 ZW 1018,2 20 55 0,0
20.09.2019 16:00:00 25,9 12,7 31,9 23,9 19 10 30 16 ZZW 1018,4 20 60 0,0
20.09.2019 15:00:00 25,2 13,1 32,2 23,7 18 10 29 16 ZW 1019,0 20 58 0,0
20.09.2019 14:00:00 24,8 14,6 29,5 23,5 19 10 29 15 ZW 1019,4 20 53 0,0
20.09.2019 13:00:00 24,1 14,5 31,4 23,4 15 8 23 13 ZZW 1019,8 20 60 0,0
20.09.2019 12:00:00 22,4 15,7 28,4 23,4 4 2 13 7 OZO 1020,6 20 53 0,0
20.09.2019 11:00:00 20,5 15,3 23,0 23,5 5 3 10 6 ONO 1021,3 20 45 0,0
20.09.2019 10:00:00 17,9 15,2 18,4 23,5 3 2 10 6 O 1021,8 20 25 0,0
20.09.2019 09:00:00 16,8 15,5 17,7 23,7 3 2 7 4 NNO 1021,4 20 41 0,0
20.09.2019 08:00:00 15,3 14,8 15,9 23,9 2 1 6 4 ONO 1021,0 14 10 0,0
20.09.2019 07:00:00 15,6 15,1 16,2 24,0 3 1 7 4 NNO 1020,9 15 0 0,0
20.09.2019 06:00:00 15,6 15,3 15,4 24,2 4 2 8 4 NO 1020,8 13 0 0,0
20.09.2019 05:00:00 15,3 14,8 15,6 24,4 4 2 6 3 NNO 1020,8 8 0 0,0
20.09.2019 04:00:00 16,3 15,8 16,4 24,6 4 2 7 4 NO 1020,5 7 0 0,0
20.09.2019 03:00:00 17,2 16,6 17,7 24,6 6 3 12 6 N 1020,3 9 0 0,2
20.09.2019 02:00:00 17,8 16,8 18,2 24,8 2 1 14 8 ONO 1020,4 9 0 0,0
20.09.2019 01:00:00 18,5 17,5 19,2 24,9 6 3 13 7 O 1020,0 17 0 0,0
20.09.2019 00:00:00 19,2 18,4 19,8 24,9 3 2 9 5 OZO 1019,8 8 0 0,0
19.09.2019 23:00:00 19,4 18,2 19,9 25,0 6 3 15 8 ZW 1019,5 11 0 0,4
19.09.2019 22:00:00 20,0 18,0 19,9 25,0 5 3 13 7 ZW 1018,5 12 0 0,8
19.09.2019 21:00:00 21,0 17,2 22,1 24,9 11 6 16 9 ZW 1017,6 20 0 0,0
19.09.2019 20:00:00 21,6 16,8 22,6 24,8 10 5 21 11 ZZW 1016,6 20 18 0,0
19.09.2019 19:00:00 22,8 15,4 25,0 24,7 0 0 29 16 N 1016,0 20 24 0,0
19.09.2019 18:00:00 24,1 14,8 26,3 24,3 19 10 38 21 ZZW 1015,2 20 39 0,0
19.09.2019 17:00:00 27,7 13,2 33,9 24,0 18 10 34 18 ZW 1013,5 20 60 0,0
19.09.2019 16:00:00 27,2 13,2 33,7 23,7 21 12 31 17 ZW 1013,7 20 60 0,0
19.09.2019 15:00:00 27,3 15,0 34,1 23,3 20 11 31 17 ZZW 1013,8 20 60 0,0
19.09.2019 14:00:00 26,5 15,2 33,7 23,1 16 9 27 14 ZW 1014,3 20 60 0,0
19.09.2019 13:00:00 25,0 14,2 32,6 23,0 5 3 14 8 ZW 1015,3 18 60 0,0
19.09.2019 12:00:00 23,3 12,9 27,6 22,9 7 4 17 9 O 1016,0 20 55 0,0
19.09.2019 11:00:00 20,7 11,9 24,6 23,1 5 3 18 10 N 1016,6 20 14 0,0
19.09.2019 10:00:00 19,9 11,9 22,6 23,2 12 6 24 13 NO 1016,4 20 60 0,0
19.09.2019 09:00:00 17,9 11,9 17,8 23,3 11 6 27 15 NO 1016,2 20 60 0,0
19.09.2019 08:00:00 16,2 11,8 16,5 23,5 12 7 24 13 NO 1016,0 20 10 0,0
19.09.2019 07:00:00 16,1 11,9 16,3 23,7 14 8 29 15 NO 1015,8 20 0 0,0
19.09.2019 06:00:00 16,1 12,1 16,2 23,8 9 5 19 11 ONO 1015,6 20 0 0,0
19.09.2019 05:00:00 16,1 12,3 16,1 24,0 11 6 22 12 NO 1016,0 20 0 0,0
19.09.2019 04:00:00 16,6 13,1 16,1 24,2 7 4 16 9 ONO 1016,1 20 0 0,0
19.09.2019 03:00:00 15,5 14,7 15,2 24,3 8 4 12 6 ONO 1016,4 14 0 0,0
19.09.2019 02:00:00 15,5 14,5 15,2 24,5 4 2 8 4 ONO 1016,6 13 0 0,0
19.09.2019 01:00:00 16,3 15,0 16,6 24,7 4 2 11 6 NNO 1016,5 14 0 0,0
19.09.2019 00:00:00 17,5 16,0 17,7 24,7 9 5 12 6 WNW 1016,5 14 0 0,0
18.09.2019 23:00:00 19,1 16,7 18,6 24,8 3 2 10 5 W 1016,5 18 0 0,0
18.09.2019 22:00:00 20,5 17,1 20,1 24,8 5 3 11 6 WZW 1015,9 20 0 0,0
18.09.2019 21:00:00 21,6 16,5 21,8 24,8 6 3 14 8 WZW 1014,9 20 0 0,0
18.09.2019 20:00:00 23,3 16,1 23,3 24,7 10 5 26 14 ZW 1013,8 20 0 0,0
18.09.2019 19:00:00 25,0 15,6 27,0 24,6 16 9 29 15 ZZW 1013,0 20 52 0,0
18.09.2019 18:00:00 26,4 15,4 29,8 24,3 17 9 24 13 ZZW 1012,4 20 51 0,0
18.09.2019 17:00:00 26,5 15,8 29,4 24,0 16 9 33 18 ZZW 1012,3 20 44 0,0
18.09.2019 16:00:00 27,1 14,8 33,0 23,7 25 13 34 19 ZW 1012,8 20 60 0,0
18.09.2019 15:00:00 26,7 13,4 33,9 23,4 21 11 32 18 ZZW 1013,2 20 60 0,0
18.09.2019 14:00:00 26,5 14,3 31,5 23,2 21 12 33 18 ZZW 1013,3 20 58 0,0
18.09.2019 13:00:00 25,4 16,8 32,0 23,1 21 11 29 16 ZW 1013,5 20 60 0,0
18.09.2019 12:00:00 24,4 11,0 31,8 23,1 9 5 18 10 ZZW 1014,0 20 60 0,0
18.09.2019 11:00:00 22,7 10,5 28,0 23,2 6 3 24 13 N 1014,3 20 60 0,0
18.09.2019 10:00:00 20,5 10,6 23,1 23,3 15 8 30 16 NO 1014,6 20 60 0,0
18.09.2019 09:00:00 18,1 11,2 16,2 23,5 10 6 23 12 ONO 1014,4 20 60 0,0
18.09.2019 08:00:00 14,9 12,0 13,0 23,7 4 2 10 6 O 1015,0 20 16 0,0
18.09.2019 07:00:00 13,3 12,4 13,0 23,9 6 3 11 6 ONO 1015,4 20 0 0,0
18.09.2019 06:00:00 13,5 12,7 13,5 24,1 3 1 13 7 O 1015,3 9 0 0,2
18.09.2019 05:00:00 14,2 13,4 14,3 24,3 5 3 9 5 NO 1015,4 12 0 0,0
18.09.2019 04:00:00 14,8 14,0 14,5 24,4 2 1 6 4 NO 1015,5 13 0 0,0
18.09.2019 03:00:00 15,6 14,6 15,4 24,7 3 2 5 3 OZO 1015,5 16 0 0,0
18.09.2019 02:00:00 16,4 15,1 16,4 24,8 0 0 7 4 N 1015,4 19 0 0,0
18.09.2019 01:00:00 17,2 15,2 17,2 24,9 0 0 5 3 N 1015,1 20 0 0,0
18.09.2019 00:00:00 18,4 15,6 18,1 25,0 0 0 6 3 N 1014,5 20 0 0,0
17.09.2019 23:00:00 19,8 16,2 19,7 25,0 6 3 9 5 NNW 1014,1 20 0 0,0
17.09.2019 22:00:00 22,5 17,0 22,4 25,0 7 4 16 9 WZW 1013,7 20 0 0,0
17.09.2019 21:00:00 24,6 17,3 24,5 25,0 5 3 22 12 Z 1012,9 20 0 0,0
17.09.2019 20:00:00 26,6 16,8 26,8 24,9 7 4 29 16 ZZW 1011,6 20 0 0,0
17.09.2019 19:00:00 29,7 12,6 31,3 24,7 18 10 29 16 Z 1010,2 20 53 0,0
17.09.2019 18:00:00 31,0 13,7 34,2 24,4 16 9 28 15 Z 1010,1 20 58 0,0
17.09.2019 17:00:00 31,4 14,1 37,2 24,0 21 12 34 18 ZZW 1010,4 20 60 0,0
17.09.2019 16:00:00 31,1 14,3 37,2 23,6 26 14 35 19 ZW 1011,1 20 60 0,0
17.09.2019 15:00:00 31,5 13,7 37,6 23,3 21 12 33 18 ZW 1011,6 20 60 0,0
17.09.2019 14:00:00 30,7 12,1 38,4 23,1 21 12 27 15 ZW 1012,3 20 60 0,0
17.09.2019 13:00:00 30,3 11,3 35,7 22,9 10 6 28 15 NNW 1013,1 20 60 0,0

tt = temperatuur
td = dauwpunt
tt 5cm = temperatuur 5cm
tt -20cm = temperatuur -20cm
ff = windsnelheid
fx = windstoten
dd = windrichting
ppp = luchtdruk
vv = zicht
sd = Zonneschijnduur
rr = neerslag

Weerstations in de omgeving